LRSB Weather Reports


time (UTC)temp
F
wind
direction
speed
knots
gust
knots
rain 1hr
in
rain 24hr
in
rain mn
in
humidity
%
barometer
mb
20260508033311 55 250 2.6 0.0 0.00 0.00 0.00 94 1015.0
20260508031811 55 280 1.7 0.0 0.00 0.00 0.00 94 1015.0
20260508030311 55 280 1.7 0.0 0.00 0.00 0.00 94 1015.0
20260508024811 55 250 1.7 0.0 0.00 0.00 0.00 94 1015.0
20260508023311 55 250 1.7 0.0 0.00 0.00 0.00 94 1015.0
20260508021812 55 260 4.3 0.0 0.00 0.00 0.00 100 1015.0
20260508020311 55 260 4.3 0.0 0.00 0.00 0.00 100 1015.0
20260508014811 54 260 2.6 0.0 0.00 0.00 0.00 100 1015.0
20260508013311 54 260 2.6 0.0 0.00 0.00 0.00 100 1015.0
20260508011811 57 0.9 0.0 0.00 0.00 0.00 94 1015.0
20260508010311 57 0.9 0.0 0.00 0.00 0.00 94 1015.0
20260508004811 57 0.9 0.0 0.00 0.00 0.00 100 1015.0
20260508003311 57 0.9 0.0 0.00 0.00 0.00 100 1015.0
20260508001810 57 0.9 0.0 0.00 0.00 0.00 100 1015.0
20260508000312 57 0.9 0.0 0.00 0.00 0.00 100 1015.0
20260507234812 57 1.7 0.0 0.00 0.00 0.00 100 1016.0
20260507233311 57 1.7 0.0 0.00 0.00 0.00 100 1016.0
20260507231811 57 260 5.2 0.0 0.00 0.00 0.00 100 1016.0
20260507230311 57 260 5.2 0.0 0.00 0.00 0.00 100 1016.0
20260507224811 59 260 6.1 0.0 0.00 0.00 0.00 94 1016.0
20260507223426 59 260 6.1 0.0 0.00 0.00 0.00 94 1016.0
20260507221811 59 260 5.2 0.0 0.00 0.00 0.00 100 1016.0
20260507220310 59 260 5.2 0.0 0.00 0.00 0.00 100 1016.0
20260507214811 59 1.7 0.0 0.00 0.00 0.00 100 1015.0
20260507213312 59 1.7 0.0 0.00 0.00 0.00 100 1015.0
20260507211811 61 1.7 0.0 0.00 0.00 0.00 94 1016.0
20260507210311 61 1.7 0.0 0.00 0.00 0.00 94 1016.0
20260507204811 61 270 2.6 0.0 0.00 0.00 0.00 88 1015.0
20260507203311 61 270 2.6 0.0 0.00 0.00 0.00 88 1015.0
20260507201811 61 250 4.3 0.0 0.00 0.00 0.00 94 1015.0
20260507200312 61 250 4.3 0.0 0.00 0.00 0.00 94 1015.0
20260507194817 61 4.3 0.0 0.00 0.00 0.00 88 1015.0
20260507193311 61 4.3 0.0 0.00 0.00 0.00 88 1015.0
20260507191811 63 10 2.6 0.0 0.00 0.00 0.00 88 1015.0
20260507190312 63 10 2.6 0.0 0.00 0.00 0.00 88 1015.0
20260507184813 63 340 5.2 0.0 0.00 0.00 0.00 83 1015.0
20260507183311 63 340 5.2 0.0 0.00 0.00 0.00 83 1015.0
20260507181811 64 10 6.1 0.0 0.00 0.00 0.00 78 1014.0
20260507180311 64 10 6.1 0.0 0.00 0.00 0.00 78 1014.0
20260507174810 66 340 5.2 0.0 0.00 0.00 0.00 73 1014.0
20260507173312 66 340 5.2 0.0 0.00 0.00 0.00 73 1014.0
20260507171812 68 360 4.3 0.0 0.00 0.00 0.00 64 1014.0
20260507170311 68 360 4.3 0.0 0.00 0.00 0.00 64 1014.0
20260507164811 70 1.7 0.0 0.00 0.00 0.00 53 1014.0
20260507163311 70 1.7 0.0 0.00 0.00 0.00 53 1014.0
20260507161811 73 0.9 0.0 0.00 0.00 0.00 44 1013.0
20260507160311 73 0.9 0.0 0.00 0.00 0.00 44 1013.0
20260507154811 72 1.7 0.0 0.00 0.00 0.00 53 1013.0
20260507153311 72 1.7 0.0 0.00 0.00 0.00 53 1013.0
20260507151811 73 170 6.1 0.0 0.00 0.00 0.00 44 1013.0
20260507150311 73 170 6.1 0.0 0.00 0.00 0.00 44 1013.0
20260507144811 72 160 7.0 0.0 0.00 0.00 0.00 47 1013.0
20260507143313 72 160 7.0 0.0 0.00 0.00 0.00 47 1013.0
20260507141811 73 1.7 0.0 0.00 0.00 0.00 44 1014.0
20260507140311 73 1.7 0.0 0.00 0.00 0.00 44 1014.0
20260507134811 72 1.7 0.0 0.00 0.00 0.00 50 1014.0
20260507133311 72 1.7 0.0 0.00 0.00 0.00 50 1014.0
20260507131808 73 1.7 0.0 0.00 0.00 0.00 44 1014.0
20260507130311 73 1.7 0.0 0.00 0.00 0.00 47 1014.0
20260507124811 73 300 7.0 0.0 0.00 0.00 0.00 47 1014.0
20260507123349 73 300 7.0 0.0 0.00 0.00 0.00 47 1014.0
20260507121811 72 290 8.7 0.0 0.00 0.00 0.00 47 1015.0
20260507120311 72 290 8.7 0.0 0.00 0.00 0.00 47 1015.0
20260507114811 72 280 9.6 0.0 0.00 0.00 0.00 44 1014.0
20260507113326 73 270 7.8 0.0 0.00 0.00 0.00 47 1014.0
20260507111811 73 270 7.8 0.0 0.00 0.00 0.00 47 1014.0
20260507110311 73 270 7.8 0.0 0.00 0.00 0.00 47 1014.0
20260507104810 75 300 7.8 0.0 0.00 0.00 0.00 44 1014.0
20260507103311 75 300 7.8 0.0 0.00 0.00 0.00 44 1014.0
20260507101811 77 310 5.2 0.0 0.00 0.00 0.00 44 1014.0
20260507100311 77 310 5.2 0.0 0.00 0.00 0.00 44 1014.0
20260507094811 75 310 8.7 0.0 0.00 0.00 0.00 44 1014.0
20260507093311 75 310 8.7 0.0 0.00 0.00 0.00 44 1014.0
20260507091812 75 300 4.3 0.0 0.00 0.00 0.00 41 1014.0
20260507090311 75 300 4.3 0.0 0.00 0.00 0.00 41 1014.0
20260507084811 72 250 5.2 0.0 0.00 0.00 0.00 50 1014.0
20260507083311 72 250 5.2 0.0 0.00 0.00 0.00 50 1014.0
20260507081811 70 250 7.0 0.0 0.00 0.00 0.00 60 1014.0
20260507080312 70 250 7.0 0.0 0.00 0.00 0.00 60 1014.0
20260507074811 70 280 2.6 0.0 0.00 0.00 0.00 57 1014.0
20260507073311 70 280 2.6 0.0 0.00 0.00 0.00 57 1014.0
20260507071811 70 270 4.3 0.0 0.00 0.00 0.00 57 1014.0
20260507070311 70 230 2.6 0.0 0.00 0.00 0.00 57 1014.0
20260507064811 68 230 2.6 0.0 0.00 0.00 0.00 60 1014.0
20260507063311 68 230 2.6 0.0 0.00 0.00 0.00 60 1014.0
20260507061823 66 140 2.6 0.0 0.00 0.00 0.00 56 1014.0
20260507060311 66 140 2.6 0.0 0.00 0.00 0.00 56 1014.0
20260507054811 64 0.9 0.0 0.00 0.00 0.00 60 1014.0
20260507053318 64 0.9 0.0 0.00 0.00 0.00 60 1014.0
20260507051811 57 1.7 0.0 0.00 0.00 0.00 77 1014.0
20260507050311 57 1.7 0.0 0.00 0.00 0.00 77 1014.0
20260507044811 55 1.7 0.0 0.00 0.00 0.00 88 1014.0
20260507043311 55 1.7 0.0 0.00 0.00 0.00 88 1014.0
20260507041811 52 230 2.6 0.0 0.00 0.00 0.00 82 1014.0
20260507040311 52 230 2.6 0.0 0.00 0.00 0.00 82 1014.0
20260507034811 48 240 2.6 0.0 0.00 0.00 0.00 87 1014.0